Location: Unspecified
(0.0000°N, 0.0000°E)
Time: 06:59:37
(UTC+02:00)

Hubble Space Telescope - Visible Passes

Search period start: 24 May 2015 00:00
Search period end: 03 June 2015 00:00
Orbit: 542 x 546 km, 28.5° (Epoch: 22 May)

Date Brightness Start Highest point End Pass type
(mag) Time Alt. Az. Time Alt. Az. Time Alt. Az.
24 May 0.7 06:35:31 47° SW 06:36:39 80° SSE 06:40:48 10° ENE visible
25 May 0.7 06:27:28 61° WNW 06:27:58 69° NNW 06:32:06 10° NE visible
26 May 1.3 06:19:24 45° NNW 06:19:24 45° NNW 06:23:17 10° NE visible
27 May 2.2 06:11:16 29° N 06:11:16 29° N 06:14:19 10° NNE visible
28 May 2.8 06:03:06 20° N 06:03:06 20° N 06:05:13 10° NNE visible
29 May 3.4 05:54:53 13° N 05:54:53 13° N 05:55:53 10° N visible
